Bad Axe, MI

4:47 AM EST on December 06, 2016 (GMT -0500)
Huron County Memorial

Weather History for KBAX - March, 2013

Change the Weather History Date:

Saturday, March 9, 2013

  Actual Average (KP58) Record (KP58)
Temperature  
Mean Temperature 31 °F -  
Max Temperature 37 °F 32 °F 66 °F (2016)
Min Temperature 25 °F 21 °F 1 °F (2003)
Degree Days  
Heating Degree Days 34    
Moisture  
Dew Point 29 °F    
Average Humidity 89    
Maximum Humidity 100    
Minimum Humidity 76    
Precipitation  
Precipitation 0.00 in - - ()
Sea Level Pressure  
Sea Level Pressure 30.26 in    
Wind  
Wind Speed 6 mph (SSE)    
Max Wind Speed 12 mph    
Max Gust Speed 16 mph    
Visibility 7 miles    
Events Fog    
Averages and records for this station are not official NWS values.
T = Trace of Precipitation, MM = Missing Value Source: NWS Daily Summary

Daily Weather History Graph

Daily Weather History Graph

Search for Another Location

Airport or City:

Trip Planner

Search our weather history database for the weather conditions in past years. The results will help you decide how hot, cold, wet, or windy it might be!

Date:

Astronomy

Mar. 09, 2013 Rise Set
Actual Time 6:54 AM EST 6:31 PM EST
Civil Twilight 6:25 AM EST 6:59 PM EST
Nautical Twilight 5:52 AM EST 7:33 PM EST
Astronomical Twilight 5:18 AM EST 8:06 PM EST
Moon 5:21 AM EST (3/9) 4:29 PM EST (3/9)
Length of Visible Light 12h 33m
Length of Day
11h 36m
Waning Crescent, 5% of the Moon is Illuminated
Mar 9
Waning Crescent
Mar 11
New
Mar 19
First Quarter
Mar 27
Full
Apr 3
Last Quarter

Hourly Weather History & Observations

Time (EST) Temp. Windchill Dew Point Humidity Pressure Visibility Wind Dir Wind Speed Gust Speed Precip Events Conditions
12:13 AM 27.5 °F 21.1 °F 26.6 °F 96% 30.42 in 5.0 mi South 5.8 mph - N/A   Clear
12:34 AM 27.5 °F 23.6 °F 26.6 °F 96% 30.41 in 5.0 mi SSE 3.5 mph - N/A   Clear
12:54 AM 27.3 °F 22.0 °F 26.4 °F 96% 30.40 in 5.0 mi SSE 4.6 mph - N/A   Clear
1:14 AM 26.2 °F 19.6 °F 25.3 °F 96% 30.40 in 5.0 mi SSE 5.8 mph - N/A   Clear
1:34 AM 27.3 °F 22.0 °F 26.6 °F 97% 30.40 in 5.0 mi SSE 4.6 mph - N/A   Clear
1:53 AM 27.3 °F 23.4 °F 26.6 °F 97% 30.40 in 5.0 mi SSE 3.5 mph - N/A   Clear
2:14 AM 26.8 °F 20.2 °F 26.2 °F 98% 30.39 in 4.0 mi SSE 5.8 mph - N/A   Clear
2:34 AM 27.3 °F 22.0 °F 26.6 °F 97% 30.37 in 4.0 mi SSE 4.6 mph - N/A   Mostly Cloudy
2:53 AM 26.8 °F 21.4 °F 26.1 °F 97% 30.37 in 0.8 mi SSE 4.6 mph - N/A   Overcast
3:14 AM 26.6 °F 21.2 °F 25.9 °F 97% 30.37 in 0.8 mi SSE 4.6 mph - N/A   Overcast
3:34 AM 26.6 °F 21.2 °F 26.2 °F 99% 30.36 in 1.0 mi SSE 4.6 mph - N/A   Overcast
3:53 AM 26.6 °F 20.0 °F 26.1 °F 98% 30.36 in 0.5 mi SSE 5.8 mph - N/A Fog Light Freezing Fog
4:14 AM 26.6 °F 21.2 °F 26.1 °F 98% 30.36 in 0.5 mi SSE 4.6 mph - N/A Fog Light Freezing Fog
4:34 AM 26.6 °F 22.6 °F 26.1 °F 98% 30.35 in 0.5 mi SSE 3.5 mph - N/A Fog Light Freezing Fog
4:53 AM 26.4 °F 20.9 °F 25.7 °F 97% 30.36 in 0.5 mi SSE 4.6 mph - N/A Fog Light Freezing Fog
5:14 AM 26.2 °F - 25.7 °F 98% 30.36 in 1.0 mi Calm Calm - N/A   Overcast
5:34 AM 26.4 °F 22.4 °F 25.7 °F 97% 30.36 in 1.8 mi SSE 3.5 mph - N/A   Overcast
5:53 AM 25.9 °F 21.7 °F 25.5 °F 99% 30.36 in 1.2 mi SSE 3.5 mph - N/A   Overcast
6:14 AM 25.7 °F 20.1 °F 25.2 °F 98% 30.37 in 0.5 mi SSE 4.6 mph - N/A Fog Light Freezing Fog
6:33 AM 25.7 °F 21.5 °F 25.0 °F 97% 30.37 in 1.0 mi SSE 3.5 mph - N/A   Overcast
6:54 AM 25.5 °F 19.9 °F 24.8 °F 97% 30.37 in 1.5 mi SSE 4.6 mph - N/A   Overcast
7:14 AM 25.7 °F 20.1 °F 25.2 °F 98% 30.36 in 2.5 mi SSE 4.6 mph - N/A   Scattered Clouds
7:33 AM 26.4 °F 20.9 °F 25.7 °F 97% 30.36 in 3.0 mi SSE 4.6 mph - N/A   Clear
7:54 AM 27.1 °F 21.8 °F 26.6 °F 98% 30.35 in 3.0 mi SSE 4.6 mph - N/A   Clear
8:14 AM 28.0 °F 24.2 °F 27.5 °F 98% 30.36 in 4.0 mi SSE 3.5 mph - N/A   Clear
8:33 AM 28.4 °F 22.2 °F 28.0 °F 99% 30.36 in 4.0 mi South 5.8 mph - N/A   Clear
8:54 AM 28.9 °F 23.9 °F 28.4 °F 98% 30.36 in 4.0 mi SSE 4.6 mph - N/A   Clear
9:14 AM 29.3 °F 24.3 °F 29.1 °F 99% 30.35 in 4.0 mi SSE 4.6 mph - N/A   Clear
9:34 AM 30.2 °F 25.4 °F 29.8 °F 99% 30.36 in 5.0 mi South 4.6 mph - N/A   Clear
9:54 AM 31.6 °F 28.3 °F 31.1 °F 98% 30.35 in 5.0 mi South 3.5 mph - N/A   Clear
10:14 AM 32.0 °F 25.6 °F 32.0 °F 100% 30.34 in 5.0 mi South 6.9 mph - N/A   Clear
10:34 AM 33.1 °F 26.1 °F 32.0 °F 96% 30.35 in 5.0 mi South 8.1 mph - N/A   Clear
10:54 AM 33.3 °F 26.4 °F 31.5 °F 93% 30.34 in 7.0 mi South 8.1 mph - N/A   Clear
11:14 AM 34.2 °F 26.8 °F 31.5 °F 90% 30.33 in 7.0 mi South 9.2 mph - N/A   Clear
11:34 AM 35.1 °F 26.9 °F 31.6 °F 87% 30.32 in 7.0 mi South 11.5 mph - N/A   Clear
11:54 AM 35.6 °F 28.0 °F 32.0 °F 87% 30.32 in 10.0 mi South 10.4 mph - N/A   Clear
12:14 PM 36.1 °F 28.7 °F 31.8 °F 84% 30.32 in 10.0 mi South 10.4 mph - N/A   Clear
12:34 PM 36.0 °F 28.0 °F 31.6 °F 84% 30.31 in 10.0 mi South 11.5 mph - N/A   Clear
12:54 PM 35.8 °F 29.4 °F 31.5 °F 84% 30.30 in 10.0 mi South 8.1 mph - N/A   Clear
1:13 PM 36.0 °F 31.1 °F 31.6 °F 84% 30.29 in 10.0 mi SSE 5.8 mph - N/A   Clear
1:34 PM 37.0 °F 33.3 °F 30.9 °F 79% 30.27 in 10.0 mi SE 4.6 mph - N/A   Clear
1:54 PM 36.7 °F 32.0 °F 31.5 °F 81% 30.26 in 10.0 mi SE 5.8 mph - N/A   Clear
2:13 PM 36.9 °F 30.1 °F 31.3 °F 80% 30.24 in 10.0 mi SE 9.2 mph - N/A   Clear
2:34 PM 36.9 °F 31.4 °F 31.8 °F 82% 30.23 in 10.0 mi ESE 6.9 mph - N/A   Clear
2:54 PM 35.6 °F 29.2 °F 31.3 °F 84% 30.22 in 10.0 mi ESE 8.1 mph - N/A   Clear
3:14 PM 35.6 °F 29.9 °F 31.3 °F 84% 30.21 in 10.0 mi ESE 6.9 mph - N/A   Clear
3:34 PM 35.8 °F 29.4 °F 31.6 °F 85% 30.20 in 10.0 mi SE 8.1 mph - N/A   Clear
3:54 PM 36.0 °F 29.0 °F 31.6 °F 84% 30.20 in 10.0 mi SSE 9.2 mph - N/A   Clear
4:14 PM 35.8 °F 28.8 °F 31.6 °F 85% 30.20 in 10.0 mi SE 9.2 mph - N/A   Clear
4:34 PM 35.8 °F 29.4 °F 31.5 °F 84% 30.19 in 10.0 mi SE 8.1 mph - N/A   Clear
4:54 PM 35.6 °F 31.7 °F 31.3 °F 84% 30.18 in 10.0 mi SE 4.6 mph - N/A   Scattered Clouds
5:14 PM 35.2 °F 32.4 °F 31.1 °F 85% 30.18 in 10.0 mi ESE 3.5 mph - N/A   Overcast
5:34 PM 35.2 °F 29.5 °F 31.5 °F 86% 30.17 in 10.0 mi ESE 6.9 mph - N/A   Overcast
5:54 PM 35.2 °F 29.5 °F 31.5 °F 86% 30.14 in 10.0 mi ESE 6.9 mph - N/A   Overcast
6:14 PM 35.6 °F 29.9 °F 31.3 °F 84% 30.14 in 10.0 mi SE 6.9 mph - N/A   Overcast
6:34 PM 36.0 °F 30.3 °F 31.1 °F 82% 30.14 in 10.0 mi SE 6.9 mph - N/A   Mostly Cloudy
6:54 PM 36.5 °F 29.7 °F 30.7 °F 80% 30.14 in 10.0 mi SSE 9.2 mph - N/A   Scattered Clouds
7:14 PM 37.0 °F 32.4 °F 30.6 °F 77% 30.13 in 10.0 mi SE 5.8 mph 16.1 mph N/A   Scattered Clouds
7:34 PM 36.7 °F 29.9 °F 30.6 °F 78% 30.12 in 10.0 mi SSE 9.2 mph - N/A   Overcast
7:54 PM 36.7 °F 29.9 °F 30.2 °F 77% 30.12 in 10.0 mi SE 9.2 mph - N/A   Overcast
8:14 PM 36.3 °F 29.5 °F 30.2 °F 78% 30.10 in 10.0 mi SE 9.2 mph 16.1 mph N/A   Overcast
8:35 PM 36.1 °F 28.7 °F 30.0 °F 78% 30.09 in 10.0 mi SE 10.4 mph - N/A   Scattered Clouds
8:54 PM 36.1 °F 29.3 °F 29.8 °F 78% 30.09 in 10.0 mi SE 9.2 mph 16.1 mph N/A   Mostly Cloudy
9:14 PM 36.1 °F 29.3 °F 29.7 °F 77% 30.09 in 10.0 mi SSE 9.2 mph - N/A   Scattered Clouds
9:34 PM 36.0 °F 28.5 °F 29.7 °F 78% 30.09 in 10.0 mi SSE 10.4 mph - N/A   Scattered Clouds
9:54 PM 36.1 °F 29.3 °F 29.5 °F 77% 30.07 in 10.0 mi SSE 9.2 mph - N/A   Scattered Clouds
10:14 PM 36.1 °F 29.9 °F 29.7 °F 77% 30.07 in 10.0 mi SSE 8.1 mph - N/A   Mostly Cloudy
10:34 PM 36.5 °F 29.7 °F 29.8 °F 77% 30.07 in 10.0 mi SSE 9.2 mph - N/A   Overcast
10:54 PM 36.7 °F 29.9 °F 30.0 °F 77% 30.06 in 10.0 mi SSE 9.2 mph - N/A   Overcast
11:13 PM 36.9 °F 30.1 °F 29.8 °F 76% 30.05 in 10.0 mi SSE 9.2 mph - N/A   Overcast
11:34 PM 36.7 °F 30.5 °F 29.8 °F 76% 30.04 in 10.0 mi SSE 8.1 mph - N/A   Overcast
11:54 PM 36.7 °F 32.0 °F 30.0 °F 77% 30.04 in 10.0 mi SSE 5.8 mph - N/A   Overcast